User: anonymous   Login
Location: Bagnara
(41.0500°N, 14.7833°E)
Time: 18:41:15
(UTC+00:00)
Language:

COSMOS 2251 DEB - Orbit

View from above orbital plane
View from above orbital plane
View from above satellite
View from above satellite

Ground track
Ground track

The orbit data is extracted from the following two-line orbital elements,

1 33798U 93036AP  22222.09015271  .00000200  00000-0  65698-4 0  9996
2 33798  74.0286 244.9445 0096117 304.8770  80.6210 14.42364270709820
Epoch (UTC): 10 August 2022 02:09:49
Eccentricity: 0.0096117
inclination: 74.0286°
perigee height: 682 km
apogee height: 819 km
right ascension of ascending node: 244.9445°
argument of perigee: 304.8770°
revolutions per day: 14.42364270
mean anomaly at epoch: 80.6210°
orbit number at epoch: 70982

The dashed part of the orbit path shows where the satellite is in the earth's shadow,  

DLR